Date String (YYYY-MM-DD hh:mm:ss) UTC,Instrument flags,absolute air pressure of the measurement (hPa),sample flow rate (lpm),inlet stack bypass flow (lpm),air temperature of the measurement (°C),ambient temperature measured by the external sensor (°C),aerosol sample conditioner tube jacket temperature (°C),OPC LED temperature (°C),internal box temperature (°C),relative humidity of the measurement (%),span deviation,mass concentration of particles derived from Lorenz-Mie calculation of OPC scattering (μg/m³),mass concentration of particles derived from Lorenz-Mie calculation of OPC scattering (μg/m³),mass concentration of particles derived from Lorenz-Mie calculation of OPC scattering (μg/m³)
DateTimeUTC,F1_M11,P_M11,Q1_M11,Q2_M11,T1_M11,T2_M11,T3_M11,T4_M11,T5_M11,U1_M11,ZSPAN_M11,X2_M11,X0_M11,X1_M11
2023-10-19 17:00:00,SystemResetWarning,0835.4,4.99,000.00,028.7,027.3,000.0,037.1,030.5,15.3,0000.0,0002.65,0010.83,0001.36
2023-10-19 17:01:00,SystemResetWarning,0835.3,4.99,000.00,028.7,027.4,000.0,037.1,030.5,15.1,0000.0,0002.63,0010.29,0001.37
2023-10-19 17:02:00,SystemResetWarning,0835.3,5.01,000.00,028.7,027.6,000.0,037.2,030.5,15.1,0000.0,0002.63,0010.32,0001.37
2023-10-19 17:03:00,SystemResetWarning,0835.4,5.02,000.00,028.8,027.7,000.0,037.2,030.6,15.3,0000.0,0002.66,0010.89,0001.38
2023-10-19 17:04:00,SystemResetWarning,0835.3,4.98,000.00,028.8,027.6,000.0,037.2,030.6,15.0,0000.0,0002.63,0011.16,0001.38
2023-10-19 17:05:00,SystemResetWarning,0835.3,5.00,000.00,028.8,026.2,000.0,037.1,030.5,15.2,0000.0,0002.59,0010.89,0001.37
2023-10-19 17:06:00,SystemResetWarning,0835.3,5.00,000.00,028.7,024.6,000.0,037.1,030.3,15.2,0000.0,0002.52,0011.47,0001.37
2023-10-19 17:07:00,SystemResetWarning,0835.2,5.01,000.00,028.7,024.6,000.0,037.0,030.2,15.3,0000.0,0002.55,0011.59,0001.38
2023-10-19 17:08:00,SystemResetWarning,0835.4,5.01,000.00,028.6,024.9,000.0,037.0,030.0,15.2,0000.0,0002.55,0010.93,0001.38
2023-10-19 17:09:00,SystemResetWarning,0835.3,4.99,000.00,028.5,025.3,000.0,037.0,030.0,15.3,0000.0,0002.44,0010.15,0001.38
2023-10-19 17:10:00,SystemResetWarning,0835.2,5.00,000.00,028.5,025.7,000.0,037.0,030.1,15.4,0000.0,0002.33,0009.83,0001.36
2023-10-19 17:11:00,SystemResetWarning,0835.3,5.00,000.00,028.5,026.1,000.0,037.0,030.1,15.4,0000.0,0002.24,0009.03,0001.33
2023-10-19 17:12:00,SystemResetWarning,0835.2,5.00,000.00,028.5,026.4,000.0,037.0,030.2,15.5,0000.0,0002.23,0008.80,0001.34
2023-10-19 17:13:00,SystemResetWarning,0835.3,5.00,000.00,028.5,026.6,000.0,037.0,030.2,15.5,0000.0,0002.21,0008.95,0001.33
2023-10-19 17:14:00,SystemResetWarning,0835.3,4.99,000.00,028.5,026.9,000.0,037.0,030.3,15.4,0000.0,0002.20,0008.35,0001.33
2023-10-19 17:15:00,SystemResetWarning,0835.3,5.00,000.00,028.6,027.1,000.0,037.0,030.3,15.6,0000.0,0002.22,0008.48,0001.33
2023-10-19 17:16:00,SystemResetWarning,0835.3,5.00,000.00,028.6,027.3,000.0,037.1,030.4,15.6,0000.0,0002.18,0008.34,0001.35
2023-10-19 17:17:00,SystemResetWarning,0835.4,5.00,000.00,028.7,027.4,000.0,037.1,030.5,15.6,0000.0,0002.16,0007.88,0001.35
2023-10-19 17:18:00,SystemResetWarning,0835.3,5.00,000.00,028.7,027.5,000.0,037.1,030.5,15.4,0000.0,0002.11,0009.03,0001.34
2023-10-19 17:19:00,SystemResetWarning,0835.3,5.00,000.00,028.7,027.6,000.0,037.1,030.6,15.3,0000.0,0002.22,0009.36,0001.35
2023-10-19 17:20:00,SystemResetWarning,0835.3,5.01,000.00,028.8,027.6,000.0,037.1,030.6,15.4,0000.0,0002.26,0009.54,0001.34
2023-10-19 17:21:00,SystemResetWarning,0835.3,4.98,000.00,028.8,026.2,000.0,037.1,030.5,15.4,0000.0,0002.32,0009.79,0001.35
2023-10-19 17:22:00,SystemResetWarning,0835.5,5.01,000.00,028.7,024.7,000.0,037.0,030.2,15.4,0000.0,0002.38,0009.91,0001.36
2023-10-19 17:23:00,SystemResetWarning,0835.3,5.02,000.00,028.6,024.7,000.0,037.0,030.1,15.5,0000.0,0002.37,0009.92,0001.36
2023-10-19 17:24:00,SystemResetWarning,0835.3,5.00,000.00,028.5,025.0,000.0,037.0,030.0,15.5,0000.0,0002.33,0009.57,0001.36
2023-10-19 17:25:00,SystemResetWarning,0835.2,5.00,000.00,028.5,025.3,000.0,037.0,030.0,15.6,0000.0,0002.34,0009.58,0001.37
2023-10-19 17:26:00,SystemResetWarning,0835.2,5.00,000.00,028.4,025.7,000.0,037.0,030.0,15.7,0000.0,0002.39,0009.35,0001.37
2023-10-19 17:27:00,SystemResetWarning,0835.2,5.00,000.00,028.4,026.1,000.0,037.0,030.1,16.0,0000.0,0002.50,0009.64,0001.37
2023-10-19 17:28:00,SystemResetWarning,0835.2,5.00,000.00,028.5,026.4,000.0,037.0,030.2,16.2,0000.0,0002.56,0009.27,0001.37
2023-10-19 17:29:00,SystemResetWarning,0835.2,5.01,000.00,028.5,026.7,000.0,037.0,030.2,15.9,0000.0,0002.67,0008.33,0001.37
2023-10-19 17:30:00,SystemResetWarning,0835.3,5.00,000.00,028.5,026.9,000.0,037.0,030.3,15.9,0000.0,0002.66,0007.98,0001.37
2023-10-19 17:31:00,SystemResetWarning,0835.3,5.00,000.00,028.5,027.1,000.0,037.0,030.3,15.8,0000.0,0002.74,0008.24,0001.39
2023-10-19 17:32:00,SystemResetWarning,0835.3,5.00,000.00,028.6,027.3,000.0,037.0,030.4,15.8,0000.0,0002.76,0008.27,0001.40
2023-10-19 17:33:00,SystemResetWarning,0835.3,5.00,000.00,028.6,027.4,000.0,037.0,030.4,15.8,0000.0,0002.72,0008.18,0001.41
2023-10-19 17:34:00,SystemResetWarning,0835.3,5.00,000.00,028.7,027.6,000.0,037.1,030.5,15.9,0000.0,0002.70,0008.54,0001.40
2023-10-19 17:35:00,SystemResetWarning,0835.3,4.99,000.00,028.7,027.5,000.0,037.1,030.5,15.8,0000.0,0002.77,0008.75,0001.41
2023-10-19 17:36:00,SystemResetWarning,0835.2,4.99,000.00,028.7,026.0,000.0,037.0,030.4,15.7,0000.0,0002.73,0008.57,0001.42
2023-10-19 17:37:00,SystemResetWarning,0835.3,5.01,000.00,028.6,024.6,000.0,037.0,030.1,15.9,0000.0,0002.69,0008.81,0001.44
2023-10-19 17:38:00,SystemResetWarning,0835.3,5.01,000.00,028.5,024.6,000.0,036.9,030.1,15.9,0000.0,0002.70,0008.60,0001.47
2023-10-19 17:39:00,SystemResetWarning,0835.3,5.00,000.00,028.4,024.9,000.0,036.9,029.9,16.0,0000.0,0002.81,0008.78,0001.49
2023-10-19 17:40:00,SystemResetWarning,0835.3,5.00,000.00,028.4,025.3,000.0,036.9,029.9,16.0,0000.0,0002.90,0009.18,0001.51
2023-10-19 17:41:00,SystemResetWarning,0835.3,4.99,000.00,028.4,025.7,000.0,036.9,030.0,16.1,0000.0,0002.92,0009.69,0001.54
2023-10-19 17:42:00,SystemResetWarning,0835.3,4.99,000.00,028.4,026.1,000.0,036.9,030.1,16.0,0000.0,0002.96,0010.26,0001.56
2023-10-19 17:43:00,SystemResetWarning,0835.3,5.00,000.00,028.4,026.4,000.0,036.9,030.1,15.9,0000.0,0003.02,0011.25,0001.59
2023-10-19 17:44:00,SystemResetWarning,0835.3,5.01,000.00,028.4,026.6,000.0,036.9,030.2,15.9,0000.0,0003.11,0012.26,0001.62
2023-10-19 17:45:00,SystemResetWarning,0835.3,5.00,000.00,028.5,026.9,000.0,036.9,030.3,15.7,0000.0,0003.13,0012.28,0001.64
2023-10-19 17:46:00,SystemResetWarning,0835.3,5.00,000.00,028.5,027.1,000.0,036.9,030.3,15.7,0000.0,0003.16,0012.14,0001.66
2023-10-19 17:47:00,SystemResetWarning,0835.2,5.00,000.00,028.5,027.3,000.0,037.0,030.4,15.8,0000.0,0003.19,0012.48,0001.68
2023-10-19 17:48:00,SystemResetWarning,0835.2,5.00,000.00,028.6,027.4,000.0,037.0,030.4,15.9,0000.0,0003.24,0012.76,0001.71
2023-10-19 17:49:00,SystemResetWarning,0835.2,5.00,000.00,028.6,027.5,000.0,037.0,030.5,15.9,0000.0,0003.26,0012.46,0001.72
2023-10-19 17:50:00,SystemResetWarning,0835.2,4.98,000.00,028.7,026.7,000.0,037.0,030.5,16.0,0000.0,0003.23,0012.37,0001.73
2023-10-19 17:51:00,SystemResetWarning,0835.2,5.00,000.00,028.6,024.9,000.0,036.9,030.2,15.9,0000.0,0003.17,0012.01,0001.74
2023-10-19 17:52:00,SystemResetWarning,0835.2,5.02,000.00,028.5,024.5,000.0,036.9,030.1,15.8,0000.0,0003.20,0012.29,0001.75
2023-10-19 17:53:00,SystemResetWarning,0835.1,5.00,000.00,028.4,024.8,000.0,036.8,029.9,15.9,0000.0,0003.19,0011.75,0001.75
2023-10-19 17:54:00,SystemResetWarning,0835.1,4.99,000.00,028.4,025.2,000.0,036.9,029.9,15.9,0000.0,0003.20,0010.77,0001.75
2023-10-19 17:55:00,SystemResetWarning,0835.2,5.00,000.00,028.3,025.6,000.0,036.9,029.9,16.1,0000.0,0003.22,0009.98,0001.76
2023-10-19 17:56:00,SystemResetWarning,0835.2,5.00,000.00,028.3,026.0,000.0,036.9,030.0,16.3,0000.0,0003.24,0009.85,0001.78
2023-10-19 17:57:00,SystemResetWarning,0835.2,5.00,000.00,028.4,026.3,000.0,036.9,030.1,16.2,0000.0,0003.22,0009.86,0001.78
2023-10-19 17:58:00,SystemResetWarning,0835.1,4.99,000.00,028.4,026.6,000.0,036.9,030.2,16.0,0000.0,0003.26,0010.04,0001.80
2023-10-19 17:59:00,SystemResetWarning,0835.2,4.99,000.00,028.4,026.8,000.0,036.9,030.2,16.0,0000.0,0003.27,0009.90,0001.81
